Location: Beeston
(52.7000°N, 0.8167°E)
Time: 05:38:53
(UTC+00:00)

Cosmos 2237 Rocket - Pass Details

Date: 15 May 2026
Orbit: 833 x 849 km, 71.0° (Epoch: 6 June)

Event Time Altitude Azimuth Distance (km) Brightness Sun altitude
Rises 20:50:13 0° 324° (NW) 3,424 7.7 -8.1°
Reaches altitude 10° 20:53:34 10° 344° (NNW) 2,484 5.8 -8.4°
Maximum altitude 20:57:18 17° 25° (NNE) 1,999 4.5 -8.8°
Drops below altitude 10° 21:01:01 10° 66° (ENE) 2,473 4.5 -9.2°
Sets 21:04:21 0° 86° (E) 3,403 5.0 -9.5°
